Regional Weather Roundup
Issued by NWS

Home | Current Version | Previous Version | Graphics & Text | Print | Product List | Glossary On
Versions: 1 2 3 4 5 6 7 8 9 10 11 12 13 14 15 16 17 18 19 20 21 22 23 24 25 26 27 28 29 30 31 32 33 34 35 36 37 38 39 40 41 42 43 44 45 46 47 48 49 50
819
ASUS43 KBIS 050310
RWRND

NORTH DAKOTA REGIONAL WEATHER ROUNDUP
NATIONAL WEATHER SERVICE BISMARCK ND
900 PM CST SUN DEC 04 2016

NOTE: "FAIR" INDICATES FEW OR NO CLOUDS BELOW 12,000 FEET WITH NO
SIGNIFICANT WEATHER AND/OR OBSTRUCTIONS TO VISIBILITY.


NDZ001>003-009>011-017-050400-
NORTHWEST NORTH DAKOTA

CITY           SKY/WX    TMP DP  RH WIND       PRES   REMARKS
WILLISTON      CLOUDY    24  19  81 N3        29.54F
MINOT          CLOUDY    17  14  88 CALM      29.59F
MINOT AFB      CLOUDY    11   9  89 E5        29.60S WCI   3
$$

NDZ018>021-031>035-040>046-050400-
SOUTHWEST NORTH DAKOTA

CITY           SKY/WX    TMP DP  RH WIND       PRES   REMARKS
BISMARCK       CLOUDY    16  14  92 E7        29.64F WCI   6
DICKINSON      CLOUDY    28  21  75 S12       29.53F WCI  18
GARRISON         N/A     17  15  92 CALM      29.60S
HETTINGER ARPT CLOUDY    31  22  69 VRB3      29.58F
$$

NDZ004>008-012>016-024-026-027-054-050400-
NORTHEAST NORTH DAKOTA

CITY           SKY/WX    TMP DP  RH WIND       PRES   REMARKS
GRAND FORKS    CLOUDY    30  25  81 W8        29.66S
GRND FRKS AFB  CLOUDY    29  25  86 NW10      29.66S WCI  20
DEVILS LAKE    CLOUDY    24  23  96 W10       29.65S FOG     WCI  14
$$

NDZ022-023-025-028>030-036>039-047>053-050400-
SOUTHEAST NORTH DAKOTA

CITY           SKY/WX    TMP DP  RH WIND       PRES   REMARKS
FARGO          CLOUDY    33  28  81 SW13      29.68S
JAMESTOWN      CLEAR     22  19  89 SW3       29.65F
$$





USA.gov is the U.S. government's official web portal to all federal, state and local government web resources and services.